Home > Weather > Jena > Past weeks

Flag for Germany Past Weather in Jena, Thuringia, Germany — Yesterday and Last 2 Weeks

Now
66 °F

Scattered clouds.


Feels Like: 66 °F
Forecast: 58 / 76 °F
Wind: 7 mph from Southwest

Location: Erfurt-Bindersleben

Current Time: Jul 30, 2016 at 9:29:08 AM

Latest Report: Jul 30, 2016 at 8:50 AM


Visibility: N/A

Pressure: 29.92 "Hg

Humidity: 83%

Dew Point: 61 °F

Location of JenaLocation

Past Weather in Jena — Graph

°F

Jena Temperature Yesterday

Maximum temperature yesterday: 73 °F (at 1:20 PM)
Minimum temperature yesterday: 59 °F (at 4:20 AM)
Average temperature yesterday: 65 °F

High & Low Weather Summary for the Past Weeks

 TemperatureHumidityPressure
High88 °F (Jul 20, 2:50 PM)100% (Jul 17, 11:50 PM)30.30 "Hg (Jul 17, 11:50 PM)
Low46 °F (Jul 16, 4:50 AM)27% (Jul 20, 2:50 PM)29.89 "Hg (Jul 21, 5:20 AM)
Average68 °F73%30.08 "Hg
* Reported Jul 15 8:20 AM — Jul 30 8:20 AM, Jena, Weather by CustomWeather, © 2016

Note: Actual official high and low records may vary slightly from our data, if they occured in-between our weather recording intervals... More about our weather records

Advertising

Jena Weather History for the Previous 24 Hours

Scroll right to see more
 ConditionsComfort  
Time TempWeatherWind HumidityBarometerVisibility
8:20 AM
Sat, Jul 30
64 °FSunny.6 mph88%29.92 "Hg10 mi
7:50 AM63 °FScattered clouds.7 mph88%29.92 "HgN/A
7:20 AM61 °FSunny.6 mph94%29.92 "Hg10 mi
6:50 AM61 °FPartly sunny.7 mph94%29.92 "HgN/A
6:20 AM61 °FPartly cloudy.8 mph94%29.92 "HgN/A
5:50 AM59 °FPassing clouds.8 mph94%29.92 "HgN/A
5:20 AM59 °FPassing clouds.8 mph94%29.92 "HgN/A
4:50 AM59 °FClear.8 mph94%29.95 "Hg10 mi
4:20 AM61 °FClear.8 mph88%29.95 "Hg10 mi
3:50 AM61 °FClear.8 mph94%29.95 "Hg10 mi
3:20 AM59 °FClear.7 mph94%29.95 "Hg10 mi
2:50 AM61 °FClear.8 mph94%29.95 "Hg10 mi
2:20 AM61 °FClear.9 mph94%29.95 "Hg10 mi
1:50 AM61 °FClear.8 mph94%29.95 "Hg10 mi
1:20 AM63 °FClear.6 mph88%29.95 "Hg10 mi
12:50 AM61 °FClear.7 mph94%29.95 "Hg10 mi
12:20 AM61 °FPassing clouds.7 mph94%29.95 "HgN/A
11:50 PM
Fri, Jul 29
61 °FPassing clouds.7 mph94%29.95 "HgN/A
11:20 PM61 °FClear.7 mph94%29.95 "Hg10 mi
10:50 PM61 °FPassing clouds.3 mph94%29.95 "HgN/A
10:20 PM63 °FClear.8 mph88%29.95 "Hg10 mi
9:50 PM64 °FSunny.8 mph88%29.92 "Hg10 mi
9:20 PM64 °FScattered showers. Partly sunny.9 mph94%29.92 "HgN/A
8:50 PM64 °FSprinkles. Partly sunny.8 mph94%29.92 "HgN/A
8:20 PM64 °FRain showers. Partly sunny.9 mph94%29.92 "Hg2 mi
7:50 PM66 °FScattered showers. Partly sunny.6 mph88%29.92 "HgN/A
7:20 PM66 °FBroken clouds.6 mph88%29.92 "HgN/A
6:50 PM68 °FBroken clouds.7 mph83%29.92 "HgN/A
6:20 PM64 °FSprinkles. Broken clouds.8 mph88%29.92 "HgN/A
5:50 PM64 °FRain. Partly sunny.12 mph83%29.92 "HgN/A
5:20 PM66 °FSprinkles. Broken clouds.13 mph78%29.95 "HgN/A
4:50 PM70 °FSprinkles. Broken clouds.14 mph69%29.92 "HgN/A
4:20 PM72 °FMild.14 mph65%29.92 "HgN/A
3:50 PM72 °FSprinkles. Broken clouds.17 mph61%29.95 "HgN/A
3:20 PM72 °FScattered showers. Broken clouds.16 mph65%29.92 "HgN/A
2:50 PM73 °FScattered showers. Partly sunny.16 mph57%29.92 "HgN/A
2:20 PM72 °FPartly sunny.14 mph61%29.95 "HgN/A
1:50 PM72 °FPartly sunny.15 mph61%29.95 "HgN/A
1:20 PM73 °FPartly sunny.15 mph61%29.95 "HgN/A
12:50 PM72 °FPartly sunny.14 mph61%29.95 "HgN/A
12:20 PM70 °FScattered clouds.14 mph64%29.95 "HgN/A
11:50 AM70 °FScattered clouds.12 mph64%29.95 "HgN/A
11:20 AM70 °FBroken clouds.12 mph64%29.95 "HgN/A
10:50 AM68 °FScattered clouds.14 mph69%29.98 "HgN/A
10:20 AM68 °FPartly sunny.12 mph69%29.98 "HgN/A
9:50 AM66 °FPassing clouds.10 mph78%29.98 "HgN/A
9:20 AM66 °FScattered clouds.8 mph78%29.98 "HgN/A
Weather by CustomWeather, © 2016

See weather overviewHow to use our weather pages